CAPE
0 0 12 97 157 174 160 157 117 173 253 355 132 28 0 0 0 0 0 0 0 0 0 0 19 211 349 376 292 98 66 80 110 136 128 123 74 90 100 108 118 99 15
0 0 0 0 55 146 186 178 180 117 138 157 163 136 59 2 0 0 0 0 0 0 0 0 3 118 276 306 274 273 246 200 170 152 127 127 121 90 30 38 105 124 152
0 0 0 0 0 109 172 140 133 155 135 134 115 177 161 98 19 0 0 0 0 0 0 0 0 43 212 241 279 289 281 276 225 229 216 146 90 48 44 12 30 54 89
0 0 0 0 0 0 17 72 95 141 187 130 127 124 148 96 71 30 0 0 0 0 0 0 0 0 26 113 245 251 322 268 268 242 262 264 152 102 87 63 77 84 82
0 0 0 0 0 0 0 71 206 225 189 136 163 108 87 51 20 10 16 3 0 0 0 0 0 0 0 2 13 54 134 204 217 170 79 59 62 86 88 95 105 106 111
0 0 0 0 0 0 0 26 187 253 169 75 87 77 49 11 7 1 0 0 0 0 0 0 0 0 0 0 0 0 0 9 19 62 74 4 0 12 49 87 101 105 156
0 0 0 0 0 0 0 0 13 137 160 135 201 85 63 39 3 8 7 2 0 0 0 0 0 0 0 0 0 0 0 0 0 5 32 19 1 0 14 56 118 153 187
0 0 0 0 0 0 0 0 0 0 157 262 249 193 96 139 85 108 105 79 77 4 2 0 0 0 0 0 0 0 0 0 0 8 43 41 0 0 0 2 128 121 136
0 0 0 0 0 0 0 0 0 0 0 80 291 294 157 80 82 70 111 102 78 18 28 9 0 0 0 0 0 0 0 0 0 0 0 2 92 64 6 19 58 80 57
0 0 0 0 5 19 54 86 152 141 201 3 262 371 336 95 101 131 0 4 106 151 88 34 40 4 0 0 0 0 0 0 0 0 0 98 82 67 122 79 62 42 19
0 0 0 0 0 0 6 7 28 60 228 331 281 324 367 228 57 36 153 89 0 0 0 0 0 2 0 0 0 0 0 0 0 3 1 27 60 113 134 82 64 52 65
0 0 0 0 0 10 20 25 53 94 225 222 463 387 250 193 136 90 81 175 142 26 0 9 20 36 30 11 2 0 0 0 2 4 7 32 44 16 6 8 3 6 2
0 0 0 0 0 26 77 189 184 114 187 239 181 350 356 214 328 309 281 251 147 23 0 0 7 14 11 5 1 0 0 1 1 3 5 3 1 1 0 0 0 0 0
1 2 1 0 0 42 101 174 213 183 209 173 146 157 285 194 240 321 281 228 55 26 3 0 0 0 1 1 4 2 4 3 4 4 4 4 3 3 1 1 1 0 0
2 1 0 1 0 0 7 73 114 80 53 23 41 84 99 203 293 386 320 164 32 0 0 14 0 4 2 0 1 0 0 3 3 4 3 2 1 1 0 0 0 0 0
2 0 0 0 0 0 0 0 0 0 2 2 3 16 44 151 217 258 252 180 126 62 54 2 1 2 1 0 0 0 0 0 0 0 0 0 0 0 0 0 0 0 0
0 1 2 0 0 0 0 0 0 0 0 0 1 1 0 0 0 0 0 0 0 0 12 1 4 3 2 0 0 0 0 0 0 0 0 0 0 0 0 0 0 0 0
1 0 0 0 0 0 0 0 0 0 0 0 0 0 0 0 0 1 0 1 0 0 0 0 4 3 1 0 0 0 0 0 0 0 0 0 1 0 0 0 0 0 1
0 0 0 0 0 0 0 0 0 0 0 0 0 0 1 0 0 0 0 0 0 0 0 0 1 0 0 0 0 0 0 0 0 0 0 0 0 0 0 0 0 1 0
0 0 0 0 0 0 0 0 0 0 0 0 0 0 0 0 0 0 0 0 0 0 0 0 0 0 0 0 0 0 0 0 0 0 0 0 0 0 0 0 0 0 0
0 0 0 0 0 0 0 0 0 0 0 0 0 0 0 0 0 0 0 0 0 0 0 0 0 0 0 0 0 0 0 0 0 0 0 0 0 0 0 0 0 0 1
0 0 0 0 0 0 0 0 0 0 0 0 0 0 0 0 0 0 0 0 0 0 0 0 0 0 0 0 0 0 0 0 0 0 0 0 0 0 0 0 0 1 3
0 0 0 0 0 0 0 0 0 0 0 0 0 0 0 0 0 0 0 0 0 0 0 0 0 0 0 0 0 0 0 0 0 0 0 0 0 0 0 0 0 2 2
0 0 0 0 0 0 0 0 0 0 0 0 0 0 0 0 0 0 0 0 0 0 0 0 0 0 0 0 0 0 0 0 0 0 0 0 0 0 0 0 0 0 3
0 0 0 0 0 0 0 0 0 0 0 0 0 0 0 0 0 0 0 0 0 0 0 0 0 0 0 0 0 0 0 0 0 0 0 1 0 0 0 0 0 0 0
0 0 0 0 0 0 0 0 0 0 0 0 0 0 0 0 0 0 0 0 0 0 0 0 0 0 0 0 0 0 0 0 0 0 0 0 0 2 1 0 0 0 0
CIN
0 0 -42 -17 -13 -15 -5 0 -2 -11 -4 0 -10 -59 0 0 0 0 0 0 0 0 0 0 -54 -3 0 0 -1 -4 -3 -4 -4 -1 -1 -3 -4 -2 -1 0 0 0 -2
0 0 0 0 -69 -23 -10 -1 0 -2 -4 -7 -13 -17 -47 -13 0 0 0 0 0 0 0 0 -95 -19 -2 0 -1 -2 -3 -4 -5 -6 -4 -5 -4 -7 -19 -18 -2 -1 0
0 0 0 0 0 -39 -21 -11 -2 -1 -2 -5 -22 -15 -17 -38 -89 0 0 0 0 0 0 0 -1 -39 -12 -7 -1 0 -1 -2 -4 -4 -4 -6 -8 -14 -15 -25 -23 -16 -5
0 0 0 0 0 0 -47 -16 -15 -11 -4 -11 -24 -45 -39 -53 -71 -87 -11 0 0 0 0 0 0 0 -44 -18 -9 -4 -1 -2 -2 -4 -4 -5 -7 -9 -10 -16 -14 -14 -14
0 0 0 0 0 0 0 -17 -2 -1 -6 -27 -31 -40 -42 -66 -85 -90 -81 -121 -123 0 0 0 0 0 -70 -66 -59 -34 -11 -6 -6 -7 -11 -13 -12 -39 -49 -46 -40 -46 -44
0 0 0 0 0 0 0 0 -5 -1 -4 -23 -35 -47 -70 -135 -131 0 0 0 0 0 0 0 0 0 0 0 0 0 0 -11 -38 -24 -15 -96 0 -22 -88 -54 -36 -48 -27
0 0 0 0 0 0 0 0 -3 0 0 -4 -5 -13 -87 -139 -181 -172 -180 -189 0 0 0 0 0 0 0 0 0 0 0 0 0 -54 -39 -59 -101 0 -18 -26 -54 -51 -37
0 0 0 0 0 0 0 0 0 -2 -2 -1 -1 -1 -8 -19 -100 -131 -144 -184 -198 -229 -110 0 0 0 0 0 0 0 0 0 0 -31 -50 -41 0 0 0 -5 -58 -39 -32
0 0 0 0 0 0 0 0 0 0 0 -17 -3 0 -1 -4 -27 -136 -139 -150 -173 -184 -159 -191 0 0 0 0 0 0 0 0 0 0 0 -2 -22 -40 -10 -19 -35 -22 -15
0 0 0 0 -15 -21 -12 -14 -5 -3 -2 -25 -2 -2 -2 -6 -4 -5 0 -39 -120 -106 -104 -110 -75 -69 0 0 0 0 0 0 0 0 0 -17 -26 -33 -17 -39 -9 -6 -12
0 0 0 0 0 -2 -11 -8 -13 -21 -6 -1 -23 -5 -6 -7 -15 -12 -4 -55 -10 0 0 0 -13 -44 -5 0 0 0 0 0 0 0 0 -6 -17 -28 -8 -1 -1 -4 -9
0 0 0 0 0 -19 -16 -14 -14 -31 -13 -12 -1 -19 -26 -33 -38 -37 -28 -16 -12 -78 0 -37 -41 -36 -64 -114 -126 0 0 0 0 -7 -3 -4 0 -6 -7 -18 -11 -18 -12
0 0 0 0 0 -34 -39 -29 -31 -36 -23 -11 -18 -10 -24 -60 -32 -14 -3 -1 -12 -42 0 0 -53 -78 -104 -56 0 0 0 0 0 0 -1 0 0 0 0 0 0 0 0
0 0 0 0 0 -29 -29 -32 -22 -23 -19 -20 -22 -20 -18 -46 -53 -16 -6 -4 -13 -13 -42 0 0 -15 0 0 0 0 0 0 0 0 0 0 0 0 0 0 0 0 0
0 0 0 0 0 0 -80 -21 -19 -22 -26 -32 -36 -27 -25 -33 -29 -11 -5 -3 -19 0 0 -17 0 0 0 0 0 0 0 0 0 0 0 0 0 0 0 0 0 0 0
0 0 0 0 0 0 0 0 -1 -1 0 0 0 -40 -14 -10 -9 -18 -3 0 0 0 -5 -2 0 0 0 0 0 0 0 0 0 0 0 0 0 0 0 0 0 0 0
0 0 0 0 0 0 0 0 0 0 0 0 0 0 0 0 0 0 0 0 0 -8 -15 0 0 0 0 0 0 0 0 0 0 0 0 0 0 0 0 0 0 0 0
0 0 0 0 0 0 0 0 0 0 0 0 0 0 0 0 0 0 0 0 0 0 0 0 0 0 0 0 0 0 0 0 0 0 0 0 0 0 0 0 0 0 0
0 0 0 0 0 0 0 0 0 0 0 0 0 0 0 0 0 0 0 0 0 0 0 0 0 0 0 0 0 0 0 0 0 0 0 0 0 0 0 0 0 0 0
0 0 0 0 0 0 0 0 0 0 0 0 0 0 0 0 0 0 0 0 0 0 0 0 0 0 0 0 0 0 0 0 0 0 0 0 0 0 0 0 0 0 0
0 0 0 0 0 0 0 0 0 0 0 0 0 0 0 0 0 0 0 0 0 0 0 0 0 0 0 0 0 0 0 0 0 0 0 0 0 0 0 0 0 0 0
0 0 0 0 0 0 0 0 0 0 0 0 0 0 0 0 0 0 0 0 0 0 0 0 0 0 0 0 0 0 0 0 0 0 0 0 0 0 0 0 0 0 0
0 0 0 0 0 0 0 0 0 0 0 0 0 0 0 0 0 0 0 0 0 0 0 0 0 0 0 0 0 0 0 0 0 0 0 0 0 0 0 0 0 0 -1
0 0 0 0 0 0 0 0 0 0 0 0 0 0 0 0 0 0 0 0 0 0 0 0 0 0 0 0 0 0 0 0 0 0 0 0 0 0 0 0 0 0 0
0 0 0 0 0 0 0 0 0 0 0 0 0 0 0 0 0 0 0 0 0 0 0 0 0 0 0 0 0 0 0 0 0 0 0 0 0 0 0 0 0 0 0
0 0 0 0 0 0 0 0 0 0 0 0 0 0 0 0 0 0 0 0 0 0 0 0 0 0 0 0 0 0 0 0 0 0 0 0 0 -1 0 0 0 0 0
Wind_Speed
28 28 27 27 26 25 24 24 25 26 26 26 25 24 24 23 23 22 22 20 18 17 17 18 17 16 15 14 14 14 14 14 16 16 16 14 14 13 14 16 15 13 13
30 29 28 26 26 26 26 26 26 25 25 26 26 26 26 25 24 23 24 24 21 20 20 20 21 17 17 18 16 15 15 14 13 15 16 15 14 14 14 14 13 14 12
32 32 32 31 29 28 28 27 28 28 27 26 27 26 25 25 25 24 24 24 25 23 22 22 22 21 20 20 20 20 19 19 18 17 16 17 17 16 15 15 14 13 13
35 35 34 34 33 32 31 30 30 29 28 28 28 28 27 26 26 25 25 25 24 24 23 20 21 22 21 22 22 23 23 23 21 21 21 20 20 18 17 16 14 14 14
34 34 36 36 35 35 35 33 33 32 33 32 31 31 31 30 28 28 27 26 24 23 24 24 24 24 24 24 24 23 26 28 28 25 22 21 21 21 21 20 19 19 18
34 34 35 35 34 35 37 36 35 34 35 35 33 33 33 31 30 31 29 26 24 23 23 24 25 29 32 34 32 19 25 30 33 32 23 19 22 25 26 25 23 22 21
29 30 32 32 32 34 36 37 37 38 37 35 35 36 38 35 35 32 30 27 25 23 26 25 24 20 23 25 23 27 30 29 29 30 32 29 26 25 25 25 25 24 22
26 27 28 30 30 32 34 36 38 39 37 34 35 36 39 35 34 34 32 30 28 27 27 26 26 25 23 29 29 34 29 28 35 32 31 29 26 25 25 24 23 24 23
28 28 28 29 29 31 35 35 36 37 40 36 33 33 35 38 34 31 32 31 29 28 27 25 24 26 29 29 30 33 32 33 34 30 29 28 27 25 24 21 22 23 23
28 26 26 26 28 30 33 33 34 36 36 40 36 34 35 35 37 39 30 29 27 27 27 26 27 26 26 28 31 33 36 37 36 32 29 29 27 26 22 20 22 23 23
27 25 24 25 27 28 29 29 32 33 35 37 37 34 34 34 35 37 40 32 27 26 23 20 21 26 29 31 31 31 33 34 31 27 25 25 25 25 24 22 22 23 25
28 26 23 23 24 24 27 29 31 34 33 35 35 34 34 33 34 33 37 36 32 26 25 25 26 29 29 31 32 33 32 29 26 26 26 26 25 22 22 23 24 27 30
29 27 23 20 21 22 19 24 31 33 32 30 32 32 32 33 32 32 32 33 33 30 29 28 24 30 31 31 31 29 30 29 26 25 22 22 24 25 26 26 28 30 31
26 23 22 19 17 19 16 14 25 29 30 29 27 28 30 31 30 30 32 31 32 27 28 30 25 24 25 25 27 26 26 26 25 24 22 25 25 27 27 29 29 30 31
25 21 18 16 15 15 17 20 20 25 25 26 26 26 26 27 26 26 26 28 31 30 32 26 24 24 23 24 25 22 22 23 24 25 24 27 29 30 31 31 30 29 30
25 21 16 13 11 11 11 13 18 22 22 21 22 23 23 24 23 24 26 26 27 30 32 21 27 27 24 24 22 23 22 22 27 29 28 28 30 30 28 30 30 31 33
24 22 18 14 12 10 11 12 13 17 18 19 20 19 19 19 19 21 22 25 26 27 34 30 27 24 25 24 25 25 26 25 27 26 28 28 28 26 30 30 32 35 35
13 11 12 16 15 12 12 12 11 13 15 16 17 17 18 18 19 20 21 22 23 25 26 30 27 26 26 26 25 26 27 25 26 26 29 27 27 29 30 31 33 36 36
16 15 16 14 12 11 12 14 13 15 17 16 16 16 17 16 17 17 18 19 20 21 22 22 23 22 22 23 22 22 24 25 25 26 25 25 30 31 33 33 33 35 37
19 19 19 18 17 18 17 16 14 14 16 17 17 16 16 17 16 16 16 17 18 18 19 20 20 21 22 22 23 26 27 28 30 26 24 27 31 32 33 33 34 35 35
19 18 18 19 19 19 18 19 20 20 18 18 18 18 17 18 17 17 16 16 17 18 19 19 21 21 22 22 24 26 28 31 28 23 29 31 32 32 32 32 33 34 37
17 18 19 18 19 19 19 19 18 18 18 18 18 19 19 18 19 19 18 18 17 15 16 17 16 20 22 24 26 29 30 32 31 26 35 36 33 33 33 33 36 38 37
14 15 16 16 17 17 17 17 16 16 16 16 16 16 16 17 18 18 18 18 18 19 19 18 19 21 24 26 27 29 31 32 33 35 36 34 31 34 33 36 37 36 34
12 13 14 15 15 16 16 16 15 15 15 15 15 15 16 16 17 17 17 17 18 19 20 21 22 23 24 26 27 28 30 32 34 32 31 35 33 36 38 37 34 32 31
9 10 11 11 12 13 14 14 14 15 15 15 15 15 16 18 17 19 20 20 20 20 21 23 23 23 24 25 26 28 32 35 36 34 32 34 37 42 39 35 32 31 41
7 8 9 9 9 11 12 11 12 13 13 13 13 14 14 16 17 17 19 20 21 21 22 24 24 24 26 27 29 30 31 35 35 37 31 39 38 38 40 33 35 39 39
Wind_Direction
303 302 301 301 300 301 298 294 292 290 289 288 287 286 287 287 288 290 292 291 291 292 295 300 300 302 306 310 315 320 323 324 323 324 325 327 329 333 333 332 334 335 334
302 300 299 298 296 297 296 294 290 289 288 288 285 285 283 285 286 286 287 290 288 289 291 293 296 295 299 303 307 310 315 319 322 322 322 323 323 323 325 327 329 331 331
301 299 297 295 294 293 292 291 290 288 286 286 285 286 284 282 283 283 284 286 287 287 288 289 292 294 295 297 301 305 307 310 313 316 318 316 316 316 318 318 319 321 322
298 296 294 292 291 290 289 287 286 285 284 284 283 284 284 284 283 282 283 283 285 287 287 284 288 291 293 294 297 300 302 304 307 309 311 313 313 312 311 311 310 310 310
298 296 293 291 290 287 286 284 283 282 283 282 281 283 284 284 284 285 282 283 285 286 285 286 287 290 292 293 294 298 299 298 300 304 307 309 309 309 309 308 306 305 306
298 297 295 292 289 288 285 283 280 281 280 280 281 282 283 284 283 283 284 284 286 286 286 285 287 290 289 282 287 300 300 298 296 298 304 302 304 304 305 305 304 304 304
303 299 298 295 289 286 285 283 281 280 279 278 280 282 281 281 280 282 283 283 284 284 285 286 287 289 291 293 299 298 299 301 302 301 301 303 302 302 303 304 304 302 301
315 308 303 300 293 289 287 284 279 278 280 275 279 280 281 282 280 282 283 283 282 283 283 283 283 285 291 294 297 296 301 303 299 301 302 303 303 301 300 301 301 302 302
323 318 312 305 300 295 290 286 281 276 274 277 274 277 280 279 285 287 285 286 284 282 283 282 284 287 293 295 297 297 301 300 301 305 304 304 304 302 299 299 300 301 304
332 328 323 315 306 300 294 290 287 280 274 271 275 272 276 280 282 284 288 290 289 285 284 284 286 291 294 297 299 299 297 298 299 304 305 305 305 306 303 300 299 301 302
340 339 335 327 316 309 303 295 289 285 279 274 269 273 274 278 279 279 281 286 290 291 291 289 290 294 297 299 302 305 302 302 304 307 309 309 308 309 310 308 307 305 303
346 347 346 340 329 321 311 302 292 284 282 277 274 270 272 277 278 279 279 281 284 287 289 292 296 295 298 301 303 306 306 306 307 310 309 309 308 312 313 310 307 304 303
346 352 356 354 345 335 335 317 293 287 282 283 278 275 274 274 279 280 280 282 282 285 287 290 300 299 300 303 306 310 309 307 310 312 317 317 316 316 313 310 306 302 304
348 358 2 7 6 350 354 349 308 292 285 285 286 282 279 277 279 279 281 281 282 285 289 289 302 310 307 311 309 315 316 315 317 320 317 314 314 314 312 310 309 305 305
350 358 9 14 18 21 7 344 332 305 301 293 291 290 287 285 280 283 284 285 284 292 294 292 294 304 311 315 320 327 327 326 325 319 318 315 313 311 309 307 308 309 307
354 1 14 25 34 36 32 22 350 325 318 313 307 301 296 294 292 289 286 286 287 286 284 309 303 303 313 319 330 325 324 320 319 314 313 313 313 310 313 309 308 308 306
4 6 18 36 48 54 53 47 31 2 349 336 323 319 314 311 308 304 299 293 292 292 286 296 305 312 312 317 319 318 319 317 318 316 315 313 315 316 311 313 307 304 305
63 76 74 51 52 68 63 53 50 25 8 354 346 338 326 319 314 309 306 303 301 302 300 296 305 308 312 316 316 316 318 319 319 318 313 312 311 314 310 313 310 305 305
73 78 74 83 94 91 77 59 51 35 12 7 357 348 340 338 331 323 316 310 309 310 311 309 308 316 321 323 321 325 327 326 327 322 320 313 314 313 312 311 311 306 304
55 55 58 60 71 67 72 75 78 68 43 29 14 11 1 352 345 336 330 321 316 316 319 319 319 318 320 321 320 321 321 321 319 322 322 319 316 315 314 313 310 309 309
33 37 40 41 41 45 47 51 59 67 70 67 66 57 56 38 5 353 343 334 326 321 320 323 320 323 321 324 321 324 322 321 326 328 322 320 321 319 318 316 316 313 310
22 21 22 25 27 30 31 39 48 51 53 53 48 45 44 36 33 26 5 4 346 358 344 339 344 328 328 324 323 324 324 323 323 329 322 319 321 319 319 318 315 312 310
16 20 20 21 20 22 27 32 38 39 40 40 37 35 27 19 15 12 8 5 360 355 351 346 339 334 330 328 327 326 325 324 321 321 321 320 324 321 321 318 316 314 313
7 9 10 12 14 14 19 21 24 24 23 20 20 19 17 14 10 6 3 359 354 351 349 344 339 336 334 333 332 331 329 327 325 326 327 320 324 321 321 319 318 316 316
3 7 9 13 12 11 11 14 13 11 10 9 10 9 5 359 357 353 349 345 344 344 344 343 341 341 340 339 338 334 329 326 325 326 328 324 323 320 321 321 320 317 314
353 358 359 5 8 4 7 11 11 10 7 7 7 7 5 1 358 357 351 347 340 341 341 339 339 339 338 337 336 335 332 327 326 326 328 325 323 325 319 321 318 315 314